Regional Weather Roundup
Issued by NWS Newport/Morehead, NC

Current Version | Previous Version | Graphics & Text | Print | Product List | Glossary Off
Versions: 1 2 3 4 5 6 7 8 9 10 11 12 13 14 15 16 17 18 19 20 21 22 23 24 25 26 27 28 29 30 31 32 33 34 35 36 37 38 39 40 41 42 43 44 45 46 47 48 49 50

246
ASUS42 KMHX 231813
RWRMHX
WEATHER ROUNDUP FOR EASTERN NORTH CAROLINA
NATIONAL WEATHER SERVICE NEWPORT/MOREHEAD CITY NC
100 PM EST MON JAN 23 2017

NOTE: "FAIR" INDICATES FEW OR NO CLOUDS BELOW 12,000 FEET
WITH NO SIGNIFICANT WEATHER AND/OR OBSTRUCTIONS TO VISIBILITY

NCZ015>017-031-032-045>047-102-103-231900-
NORTH COAST

CITY           SKY/WX    TMP DP  RH WIND       PRES   REMARKS
EDENTON        SUNNY     65  51  60 SW9       29.27F
ELIZABETH CITY MOSUNNY   65  53  65 SW14G21   29.25F
KITTY HAWK     NOT AVBL
MANTEO         CLOUDY    60  51  71 W7        29.26S

$$

NCZ045>047-081-094-103-104-231900-
CENTRAL COAST

CITY           SKY/WX    TMP DP  RH WIND       PRES   REMARKS
FRISCO         MOSUNNY   62  51  67 SW10      29.27F HAZE

$$

NCZ095-097-098-100-101-231900-
SOUTHERN COAST

CITY           SKY/WX    TMP DP  RH WIND       PRES   REMARKS
BEAUFORT       PTSUNNY   61  52  72 S8        29.27F
CEDAR ISLAND   NOT AVBL
JACKSONVILLE   NOT AVBL
PINEY ISLAND   CLOUDY   N/A N/A N/A W6        29.27F
WILMINGTON     MOSUNNY   64  50  60 SW14G20   29.22F


$$

NCZ011>013-027>030-043-044-078>080-089-090>093-098-231900-
COASTAL PLAIN

CITY           SKY/WX    TMP DP  RH WIND       PRES   REMARKS
AHOSKIE          N/A     64  51  62 CALM      29.24F
CLINTON        MOSUNNY   63  49  62 SW6       29.25F
ELIZABETHTOWN  MOSUNNY   63  49  59 W5        29.23F
GOLDSBORO      MOSUNNY   65  49  54 W15       29.22F
GREENVILLE     SUNNY     64  46  52 W7        29.29F
HAVELOCK       PTSUNNY   64  50  60 CALM      29.26F
KENANSVILLE    MOSUNNY   64  48  55 W9        29.24F
KINSTON        SUNNY     64  46  52 W6        29.25F
NEW BERN       SUNNY     65  47  52 CALM      29.26F
RICHLANDS      PTSUNNY   64  50  60 W6        29.24F
ROCKY MOUNT    MOSUNNY   61  49  64 W9        29.25F
WASHINGTON     PTSUNNY   65  48  54 W7          N/A
WHITEVILLE     CLOUDY    60  48  64 SW8       29.24F

$$

AMZ130-135-150-152-154-156-158-170-250-252-270-ANZ085-086-088-633-658-670-231900-
MARINE OBSERVATIONS

STATION/POSITION TIME  TEMP    WIND        PRES    WAVE   SWELL
                       AIR SEA DIR/SP/G            HT/PER HT/PER
                 (UTC) (F)     (DEG/KT/KT) (MB)    (FT/S) (FT/S)
CHESAPEAKE LIGHT NOT AVBL
64 E VA BEACH    1750   57 56  220/ 17/ 23  990.4   10/11   8/11
DUCK             1748   57 46  220/  7/ 10  989.9
2 E DUCK         1730      47                N/A     6/ 6   2/11
OREGON INLET     1736   52 51  180/ 10/ 12  990.9
13E OREGON INLT  NOT AVBL
HATTERAS CG      1748          230/  9/ 12  990.9
DIAMOND BUOY     1750   64 76  250/ 14/ 19  991.4    8/ 7   7/ 7
CAPE LOOKOUT     1700   59     220/  5/  6  991.7
BEAUFORT LAB     1748          200/  8/  8  990.2
30 SE NEW RVR IN 1708   64 68  270/  2/  8  991.5
30 SE NEW RVR IN 1743      68                N/A     7/ 9   3/11
27 SE WRIGHTSVLE 1708   62 67  120/  2/  8  990.3
5 SE WRIGHTSVLE  1708   57 54  170/  4/  6  990.7
225 S CAPE HAT   1650   67 71  240/ 12/ 19  994.4   14/11  13/11
41 SE CHARLESTON 1650   58 68  240/ 25/ 33  991.0    8/10   5/10

$$




USA.gov is the U.S. government's official web portal to all federal, state and local government web resources and services.